Temp
24 24 23 23 24 24 24 23 23 22 22 22 21 21 21 21 21 20 20 20 20 19 19 19 19 19 20 20 20 19 19 18 18 19 20 21 20 21 21 21 21 20 20
24 24 24 24 24 24 23 23 22 22 22 21 21 21 21 20 20 20 19 19 18 18 18 19 18 19 19 19 19 19 19 19 18 18 19 20 20 21 21 21 21 21 21
24 24 24 24 24 23 23 22 22 22 21 20 20 20 20 20 19 19 18 18 18 17 17 17 17 17 18 18 18 18 18 19 18 18 18 19 19 20 20 20 21 21 21
24 24 23 24 23 23 23 22 22 21 20 20 19 19 19 18 18 18 18 17 17 17 16 16 16 15 15 15 15 15 16 17 17 17 18 18 19 20 19 19 20 20 20
24 24 23 23 23 23 22 22 21 20 19 19 19 18 18 17 16 16 16 16 16 16 16 15 14 14 13 12 12 13 14 14 15 15 16 17 17 18 18 18 18 18 19
22 23 22 22 22 22 21 20 19 19 18 18 17 17 16 15 15 16 16 16 15 15 14 14 13 12 12 12 13 13 12 12 13 13 15 15 15 17 17 17 17 17 17
21 21 21 22 22 21 20 19 19 18 17 16 15 15 15 15 16 16 15 14 13 12 11 11 11 11 11 11 12 13 14 13 12 12 13 14 14 16 15 15 16 16 16
21 23 21 20 21 19 19 19 18 17 16 15 14 14 15 14 13 13 12 12 11 11 10 10 9 9 9 9 11 11 12 13 12 12 11 13 14 15 16 15 15 15 16
21 20 20 19 19 19 19 18 17 16 14 13 14 14 13 12 11 12 12 12 12 11 11 10 9 8 8 8 9 9 9 12 13 12 13 13 15 15 16 14 15 15 15
19 19 19 19 19 18 17 17 16 15 14 14 13 13 13 13 13 13 13 13 12 12 11 10 9 8 8 8 7 7 7 8 9 11 13 14 14 14 15 15 14 14 15
19 20 19 19 18 17 17 17 16 14 13 13 13 13 13 13 13 13 13 12 12 11 11 11 10 9 8 8 8 7 6 7 8 9 9 11 12 13 13 14 14 14 15
19 19 18 17 17 17 16 16 15 14 14 13 13 13 13 13 13 13 13 13 13 12 11 11 11 11 11 9 7 6 6 7 6 6 6 7 8 9 10 12 13 14 15
19 18 17 17 17 17 17 15 14 14 14 14 14 13 13 13 13 14 14 13 13 13 13 12 12 12 12 11 9 8 7 6 6 6 6 6 6 6 8 9 12 13 15
18 17 17 17 16 16 16 16 15 15 14 14 14 14 14 14 14 14 14 14 13 12 12 11 10 10 10 9 9 8 7 7 6 5 5 6 6 6 6 7 8 11 12
18 17 17 17 17 16 16 16 16 16 17 16 16 15 15 15 15 15 14 13 12 11 10 10 10 9 9 9 9 8 8 7 6 6 5 5 5 6 6 6 7 8 11
18 17 17 17 16 16 16 15 15 16 15 15 15 15 16 16 15 15 14 13 11 9 9 8 9 9 8 8 8 8 8 7 6 6 5 5 5 5 5 6 6 7 9
18 18 17 17 16 16 15 15 15 15 16 16 16 16 16 16 16 15 14 13 11 10 9 9 9 9 9 9 9 8 8 8 7 6 5 5 5 5 5 6 6 6 7
18 18 18 18 17 16 16 16 16 16 16 17 17 16 17 17 17 16 14 12 13 12 11 9 9 9 9 9 9 9 8 8 7 7 6 5 5 5 5 5 5 5 6
18 18 18 18 17 17 17 17 16 16 16 16 16 17 18 18 17 17 16 14 13 13 13 12 12 10 11 11 10 10 9 8 7 7 6 6 5 5 5 5 5 5 5
18 18 18 18 18 18 17 17 17 17 17 16 17 18 18 17 17 18 17 16 15 14 14 13 14 13 13 12 12 11 10 9 8 7 6 6 5 5 4 5 5 5 5
16 16 16 16 16 17 16 17 17 17 17 17 18 18 18 16 17 17 17 16 15 14 14 14 14 14 13 12 11 11 10 9 8 7 6 6 5 5 5 4 4 4 4
17 17 18 18 17 16 16 17 17 17 17 17 18 18 18 17 17 16 15 15 14 14 13 13 12 12 11 11 10 10 9 9 8 8 6 6 5 5 4 4 4 4 4
17 17 17 17 17 16 16 17 17 17 17 17 18 17 18 17 17 15 14 13 13 13 12 11 11 10 10 10 10 9 9 8 8 7 6 5 4 4 4 4 3 3 4
16 17 16 16 15 14 15 16 17 19 18 17 18 17 16 16 16 14 13 13 13 12 11 10 9 9 8 8 8 8 8 8 7 7 7 6 6 6 4 3 3 3 3
16 17 16 16 16 15 17 17 18 17 17 18 17 16 16 15 14 13 12 12 11 10 10 9 9 8 7 7 6 6 7 7 7 7 8 8 7 7 6 3 3 3 4
16 15 16 16 16 17 17 17 18 18 18 17 16 15 15 14 13 12 12 11 10 9 9 8 8 7 6 6 6 6 6 7 8 8 8 8 8 8 6 5 5 4 5
Height
783 788 792 797 799 802 805 806 808 808 807 806 806 805 802 801 799 798 796 794 790 787 784 782 780 777 774 772 770 768 767 767 766 761 758 756 755 754 753 755 754 753 752
779 785 791 795 798 801 804 806 807 807 807 806 805 803 801 799 798 797 796 794 791 788 785 782 780 777 774 772 771 769 767 765 764 760 757 754 753 751 750 750 749 748 746
778 784 789 794 797 801 804 805 806 806 805 806 804 803 801 799 798 797 796 794 791 789 787 784 781 778 775 773 771 768 765 763 761 759 755 752 750 749 748 747 746 744 741
775 781 788 794 798 800 802 803 804 804 803 803 803 802 801 800 799 796 794 792 790 789 787 785 782 780 777 775 772 769 766 762 759 757 754 751 749 747 746 744 742 740 737
776 781 785 790 796 801 802 802 802 803 803 803 803 802 800 800 800 798 793 790 789 788 787 785 783 782 780 777 774 771 767 764 760 756 753 751 748 746 745 744 741 737 732
776 783 789 793 796 799 801 802 802 803 804 806 806 803 800 800 801 799 795 791 788 786 785 784 782 779 776 775 773 771 769 765 761 758 754 752 748 745 744 743 739 736 730
778 787 792 796 797 799 801 803 803 803 805 806 807 805 802 799 798 798 795 792 790 789 788 786 783 780 775 772 769 766 763 762 759 756 752 749 747 743 742 738 736 734 730
781 777 783 789 795 797 801 802 802 803 805 807 808 806 803 802 801 798 796 794 793 790 789 788 785 781 777 774 770 766 760 756 752 750 748 744 742 739 736 734 731 728 723
779 784 786 791 796 798 800 802 803 803 806 808 808 807 807 805 803 801 797 794 793 792 789 787 783 780 776 772 769 765 759 754 751 747 743 739 735 733 731 727 722 722 717
779 785 789 795 796 798 801 803 804 804 806 808 809 809 808 806 805 802 799 795 793 791 789 785 782 780 776 772 767 763 759 754 749 743 739 733 731 728 725 722 721 718 714
778 783 790 793 796 799 802 805 805 807 808 808 809 810 809 807 805 803 800 796 794 790 787 784 781 779 774 771 767 762 759 754 749 743 737 732 728 724 721 719 717 715 710
779 783 791 796 798 800 802 806 808 807 808 809 809 809 809 807 806 803 800 796 793 790 787 785 782 779 774 769 766 763 757 752 747 743 738 733 728 724 719 715 713 709 705
786 789 791 794 797 800 803 806 807 809 808 808 808 808 808 806 805 802 798 795 794 792 790 787 784 780 776 772 767 763 757 753 749 746 741 736 731 725 720 715 708 704 698
787 792 794 793 797 800 802 804 806 808 809 808 808 807 807 807 804 801 798 795 794 793 791 788 785 783 780 775 769 764 759 753 749 745 741 736 730 724 719 715 708 701 696
787 789 791 791 793 797 799 802 805 807 808 808 808 808 807 805 803 801 799 797 795 793 790 788 785 782 778 773 769 764 758 752 746 742 739 735 730 725 719 713 708 702 696
783 789 791 793 795 797 800 803 804 805 806 806 807 807 805 804 802 800 798 795 793 791 788 786 782 778 775 771 765 762 756 751 747 743 739 735 729 724 718 712 709 703 696
782 787 792 795 796 798 801 803 804 806 804 803 805 805 803 801 799 797 795 793 790 788 784 780 777 774 770 766 762 760 755 751 747 743 738 734 729 723 718 711 706 702 695
786 790 794 796 797 798 800 802 802 803 803 801 802 803 801 798 795 793 792 790 784 780 778 774 769 766 764 761 759 757 752 747 744 740 736 732 727 722 716 710 705 700 695
785 790 794 796 797 800 802 802 801 801 800 798 796 798 798 796 793 789 786 783 779 775 771 766 762 759 756 754 753 750 747 742 739 735 732 728 723 719 713 708 702 696 692
786 789 793 795 797 799 803 802 801 800 799 800 794 791 793 794 790 786 782 779 775 770 766 762 758 754 751 748 747 744 740 737 734 731 727 723 719 714 709 703 697 691 685
789 792 795 797 800 801 804 800 799 797 795 793 793 791 789 790 787 783 780 776 772 767 762 759 755 751 748 745 741 738 735 732 729 725 722 717 713 708 703 697 691 684 678
791 791 793 794 797 801 801 799 797 794 794 790 787 786 785 785 783 780 777 773 768 765 761 756 752 748 744 740 736 733 729 727 724 720 717 713 708 703 697 690 683 676 670
789 790 795 797 799 796 793 790 788 787 786 786 784 783 780 780 778 776 773 769 766 763 758 753 748 744 740 737 733 729 726 723 720 717 713 708 702 696 691 684 675 667 661
790 790 794 795 794 789 784 783 785 784 782 782 781 779 779 778 775 772 769 767 763 758 754 749 745 741 736 732 728 725 722 719 715 712 708 703 696 690 683 676 668 659 652
794 788 790 790 787 785 781 780 781 781 780 778 778 778 777 775 773 771 768 764 759 755 750 746 741 736 731 727 722 719 716 714 711 707 703 697 691 684 678 670 661 652 643
792 788 788 785 784 782 781 780 780 778 777 777 776 776 774 773 770 767 764 760 756 752 747 743 738 733 728 723 718 715 711 708 705 702 697 692 686 680 673 665 656 647 636
Wind_Speed
22 20 20 19 17 17 14 10 8 6 2 1 1 5 6 8 4 7 10 14 18 19 19 19 19 16 18 17 16 11 10 8 5 10 15 16 16 18 20 20 21 26 30
25 24 22 19 19 16 11 9 8 3 1 2 3 4 7 8 5 7 10 13 15 17 18 18 19 18 18 17 16 16 15 12 10 11 17 16 15 12 14 16 19 21 23
28 25 22 19 16 14 12 10 5 2 2 4 4 7 9 9 8 9 10 13 13 15 16 17 17 19 20 20 19 20 18 15 11 12 14 18 17 16 15 15 15 18 20
29 27 21 16 17 18 14 8 5 5 5 5 8 9 10 9 10 10 11 12 13 14 16 17 16 18 17 18 19 21 21 20 17 14 14 17 17 18 17 14 17 16 18
31 24 23 23 21 14 11 7 8 8 7 7 6 8 12 14 15 13 13 13 14 16 17 17 14 14 15 17 18 20 20 21 20 18 15 11 14 14 13 13 19 22 23
20 22 23 19 16 13 10 11 11 10 7 8 14 15 16 17 14 14 14 13 14 15 18 18 15 16 20 22 22 21 17 15 18 12 12 13 15 14 16 21 21 14 5
19 18 16 14 13 13 13 11 11 9 11 14 15 14 16 15 14 14 13 13 14 16 16 16 18 19 20 24 24 23 20 18 13 15 19 19 20 22 24 24 21 18 19
27 27 21 17 15 16 13 10 12 13 14 16 15 15 14 16 15 14 14 16 16 17 17 16 18 22 21 19 20 22 24 24 23 21 19 23 24 24 26 27 26 26 24
27 20 20 18 18 15 12 15 15 15 20 18 15 14 14 15 15 17 19 21 21 19 18 18 17 22 22 20 18 18 22 23 22 23 22 19 18 20 18 21 23 16 11
22 22 19 17 16 14 16 14 16 22 20 15 14 14 17 20 23 24 25 28 28 28 28 27 21 20 21 21 21 20 20 25 24 24 23 23 20 17 15 16 19 16 14
26 22 18 16 15 18 19 19 23 21 17 15 16 18 19 19 21 22 22 23 23 25 27 29 29 25 25 25 24 23 22 22 19 20 21 22 22 22 22 22 21 18 18
25 24 20 18 19 21 21 20 19 18 18 17 19 16 15 15 15 16 19 21 21 24 25 26 29 32 33 29 25 21 24 24 25 24 21 21 22 25 27 26 24 23 20
23 21 20 21 21 21 19 18 19 18 20 19 15 11 7 6 6 10 14 17 19 21 21 22 25 28 30 31 29 26 26 20 19 21 21 21 24 27 28 26 24 24 22
22 22 22 23 22 18 16 16 17 18 18 15 10 6 3 1 4 7 10 12 12 14 15 16 17 18 20 21 24 25 24 21 18 17 18 21 23 25 25 25 27 27 23
22 21 19 21 22 19 16 15 15 16 13 8 6 5 3 4 6 9 11 12 12 13 15 13 14 16 17 19 21 22 23 23 24 23 21 21 22 22 25 25 24 26 18
20 18 17 19 18 16 15 13 12 11 10 8 7 8 9 10 12 14 14 16 15 14 19 19 19 18 18 18 18 20 22 22 22 21 20 19 20 21 23 24 21 21 20
18 16 14 14 16 15 15 14 13 12 11 11 12 14 16 18 18 19 20 22 22 21 24 28 27 25 24 22 21 19 20 22 21 22 20 21 21 22 22 22 21 19 19
12 14 14 11 11 13 12 13 13 13 13 12 12 15 16 17 20 22 24 25 30 30 29 30 31 31 28 26 25 25 23 25 23 23 22 21 22 22 22 21 21 19 19
15 14 10 7 8 8 8 8 10 12 16 15 14 14 13 17 19 20 22 23 29 33 34 33 33 32 30 31 30 29 27 29 28 28 27 25 23 21 23 22 22 23 22
13 11 14 10 8 7 7 7 8 12 13 13 12 13 16 20 20 21 22 23 24 26 29 30 31 30 30 32 31 29 29 31 30 27 28 27 25 23 24 25 25 24 23
10 8 6 6 5 6 4 17 11 12 14 14 16 18 21 21 23 20 19 22 22 22 21 20 22 26 29 30 29 28 29 31 30 29 28 27 24 25 27 27 28 28 26
10 10 11 12 8 9 20 24 22 18 19 19 21 22 22 22 22 18 18 20 15 14 17 20 23 26 26 25 25 26 26 28 27 26 25 27 25 26 27 29 30 29 26
13 13 9 7 13 21 29 27 24 24 22 23 22 23 23 20 15 15 17 11 13 19 23 23 23 24 23 20 18 20 22 24 22 21 25 28 28 28 28 29 29 28 25
13 9 8 10 19 21 19 18 15 12 20 18 19 17 14 13 14 12 9 13 20 24 24 23 22 21 21 20 20 18 18 19 19 21 25 29 33 36 31 29 29 29 28
8 4 6 11 13 9 6 5 7 9 10 11 10 12 11 12 8 9 14 19 23 23 23 23 23 22 22 21 19 21 21 20 21 23 25 28 32 32 34 31 30 30 31
7 4 6 8 8 8 8 6 5 8 10 11 9 10 10 5 9 13 18 21 22 22 22 22 23 23 21 20 20 19 18 18 20 22 25 27 29 31 32 33 34 31 30
Wind_Direction
181 181 178 176 174 169 174 169 162 151 132 62 43 28 22 19 4 22 26 18 16 17 19 17 20 17 13 21 15 351 324 292 272 288 300 310 298 285 276 265 271 266 268
181 178 180 179 180 182 180 163 161 167 80 15 21 29 19 11 4 9 17 15 15 16 14 16 18 17 19 12 10 7 359 336 277 283 304 315 314 311 287 280 273 272 267
179 178 178 181 182 184 169 157 164 136 85 58 41 29 30 40 50 39 16 11 15 20 26 27 28 23 21 15 10 6 2 352 334 283 294 308 314 323 316 300 288 280 278
179 173 174 176 162 150 156 158 156 146 118 90 75 73 56 39 25 20 14 20 28 26 18 22 18 15 16 12 10 9 3 357 354 338 310 303 310 317 315 308 310 309 298
172 167 158 154 155 156 155 153 140 124 101 85 77 69 62 52 41 36 38 30 15 3 2 7 15 358 6 6 3 351 350 349 351 347 338 325 327 328 333 331 314 314 304
167 157 153 153 154 156 147 141 124 114 97 89 88 86 77 59 34 23 15 10 7 3 1 358 3 355 345 342 337 333 333 330 325 327 318 318 315 319 322 326 320 317 310
167 150 150 154 163 149 137 126 115 114 114 104 93 78 60 44 20 9 15 28 36 37 29 21 16 6 1 353 349 345 336 336 325 305 295 296 302 303 307 308 306 298 284
165 165 173 184 176 144 138 127 121 122 119 111 92 68 49 37 34 46 56 53 54 47 42 36 19 12 5 352 345 349 350 351 350 342 312 298 294 294 295 295 296 293 289
164 176 171 171 156 145 137 132 134 134 126 109 87 64 48 51 58 61 59 60 57 50 43 32 17 10 3 2 360 353 346 347 350 346 341 331 312 305 302 305 299 285 284
182 174 161 168 152 140 141 143 144 137 126 111 92 72 77 78 77 73 67 65 62 56 49 42 32 13 13 11 10 3 350 342 339 339 341 340 344 343 345 342 320 279 277
157 154 157 152 149 145 139 142 140 134 127 113 104 99 94 84 75 69 66 63 56 51 44 38 34 23 22 21 15 6 352 343 343 343 339 337 339 342 341 340 339 316 284
153 149 150 150 144 141 137 138 145 140 131 125 120 111 101 88 77 65 54 47 43 40 37 34 30 28 25 18 10 360 360 358 355 350 347 342 339 334 329 328 324 326 320
149 148 146 139 141 143 143 145 145 146 140 135 126 124 120 94 68 48 39 34 27 24 24 24 22 21 20 20 19 7 3 3 353 347 339 332 329 325 323 321 321 326 327
147 146 148 146 148 149 145 147 146 150 148 147 149 146 131 71 27 17 13 12 7 1 358 3 9 11 14 13 11 8 6 359 343 336 329 328 326 330 327 330 326 324 321
148 148 152 157 162 157 154 156 157 161 156 165 187 204 231 314 338 336 337 336 332 328 324 326 338 345 350 360 7 10 5 0 356 345 334 327 324 327 327 328 324 322 316
151 156 161 164 169 169 166 170 179 188 206 233 258 270 289 296 301 304 310 313 306 305 304 304 310 317 320 328 340 346 356 352 352 346 334 326 319 320 322 322 324 320 320
162 174 175 177 178 183 189 191 197 216 224 242 263 277 287 296 294 295 297 301 295 295 289 292 291 295 301 309 316 320 322 331 345 343 334 329 322 317 318 316 319 319 317
158 167 166 171 187 191 196 210 225 230 242 257 273 286 292 289 291 294 290 287 291 293 293 291 290 294 286 290 296 298 307 314 320 331 329 324 324 315 311 310 309 307 308
159 163 167 163 175 198 203 224 245 238 243 261 288 298 295 292 298 304 304 288 285 291 297 299 303 304 302 292 290 294 300 304 310 313 310 309 314 311 309 306 301 299 296
158 158 172 182 186 208 235 250 240 232 245 266 286 283 290 294 302 310 315 313 309 302 303 305 312 311 306 298 293 295 301 308 309 307 306 304 303 307 302 301 299 294 292
134 132 103 64 85 47 264 258 261 248 256 268 280 282 286 295 298 298 314 321 318 320 322 323 322 315 309 306 302 301 305 311 313 312 309 306 303 300 303 300 298 295 288
147 149 161 169 184 235 287 292 283 271 271 273 280 285 293 296 300 295 316 323 332 339 338 331 324 319 316 314 313 312 312 311 316 317 316 312 303 299 296 295 297 297 291
171 162 183 228 245 267 291 283 273 266 274 283 287 294 299 302 305 307 322 335 337 336 334 331 326 323 322 320 320 320 315 315 317 315 315 311 305 302 300 295 296 293 289
154 151 186 260 292 294 279 272 261 280 280 289 296 299 308 315 314 322 336 333 335 335 335 335 333 326 323 320 320 318 318 317 313 313 315 313 314 317 312 302 295 295 287
176 172 282 310 323 325 22 323 275 292 305 306 305 320 321 321 326 337 335 337 338 340 342 342 340 335 331 326 317 312 309 306 307 312 315 318 320 325 329 319 307 302 296
223 256 296 334 345 349 2 345 320 313 302 315 325 322 321 319 333 336 338 340 343 345 346 347 350 350 347 344 342 336 327 321 317 319 321 322 326 333 339 335 330 317 311